EHI
0 0 0 0 0 0 0 1 1 1 3 7 14 18 19 23 28 31 34 41 50 61 70 72 68 63 55 51 53 56 54 52 52 51 48 44 40 35 29 22 15 12 13 15
0 0 0 0 0 0 0 1 2 2 4 8 14 19 22 26 29 32 37 44 52 59 65 69 68 63 57 53 54 55 53 52 53 51 47 42 39 35 30 24 19 15 13 11
0 0 0 0 0 0 0 2 3 4 6 10 15 23 29 31 33 39 44 49 55 59 63 65 67 65 60 56 56 56 55 54 55 52 47 42 39 36 32 27 23 18 12 8
0 0 0 0 0 0 0 2 3 5 6 9 15 24 33 35 39 46 51 55 59 61 63 64 65 66 62 57 55 56 56 57 57 53 49 45 42 39 35 29 24 18 12 8
0 0 1 1 0 0 1 3 3 4 5 6 10 18 27 33 38 46 53 60 62 62 63 64 63 63 61 57 55 55 57 59 57 54 51 48 46 43 37 29 21 16 12 10
0 1 2 3 2 1 3 6 7 6 6 6 8 15 25 33 39 47 56 63 65 64 65 67 65 63 61 58 57 58 60 61 60 57 54 52 50 46 37 26 17 13 11 12
0 1 3 4 4 5 10 16 16 14 15 17 19 25 33 40 48 56 61 64 66 68 71 72 71 68 66 62 61 64 65 65 64 61 57 55 52 47 39 27 17 12 10 10
2 4 6 10 15 21 28 34 31 26 28 32 34 36 41 47 54 62 65 65 67 71 74 77 76 73 71 68 67 69 70 69 67 62 56 53 51 48 42 30 18 12 9 8
8 10 14 21 32 39 44 45 40 35 36 40 43 42 42 47 54 58 62 66 69 71 73 76 77 75 73 72 71 72 73 72 67 59 54 51 49 46 39 28 16 11 9 7
16 16 18 25 34 39 41 39 34 32 34 40 46 47 46 50 55 58 60 65 69 70 69 72 76 75 73 73 73 73 73 70 64 56 52 49 45 39 31 21 12 10 8 7
22 21 20 22 25 28 29 28 25 26 31 39 45 48 50 54 58 60 60 62 66 67 66 68 72 72 70 70 73 74 71 66 60 55 50 44 36 28 21 13 8 7 6 5
26 24 22 21 20 21 23 24 26 29 33 37 42 46 51 56 58 59 60 61 62 63 62 62 64 65 64 66 70 73 71 64 56 52 49 41 30 19 11 6 3 3 2 2
32 28 24 21 19 18 19 23 28 31 33 35 38 43 50 54 54 55 58 59 57 56 56 55 54 55 57 60 65 69 67 59 51 48 46 39 29 19 10 4 1 0 0 0
34 30 26 22 19 17 16 18 22 26 29 32 34 39 46 51 51 51 54 54 52 52 52 50 50 51 52 54 58 60 57 51 47 46 44 38 30 23 15 8 5 4 2 1
26 24 22 20 17 15 14 13 15 21 28 33 35 39 43 46 48 49 48 46 47 49 50 49 50 50 50 50 50 50 48 47 46 46 45 40 31 24 17 11 9 8 5 2
17 16 14 12 13 13 13 12 14 22 31 37 40 41 42 42 44 47 45 42 43 46 49 50 49 48 45 45 45 45 44 42 41 43 44 41 34 26 19 12 10 9 6 3
11 10 9 10 12 13 14 15 18 23 30 36 39 42 41 40 40 42 41 39 40 43 45 46 45 43 40 40 40 40 39 35 32 36 39 38 35 30 22 14 11 9 6 3
9 9 9 11 13 14 15 17 19 22 27 31 35 39 41 39 37 35 34 35 37 39 40 39 39 37 34 33 34 33 31 29 29 31 32 32 30 27 22 16 12 9 6 4
9 9 9 11 12 13 15 17 20 22 25 28 31 35 37 35 33 31 30 30 32 34 35 33 31 29 27 26 25 23 23 24 25 25 24 22 20 19 16 13 10 8 6 5
9 9 9 10 11 13 15 17 19 20 22 26 29 32 32 30 29 29 26 25 26 30 31 27 25 24 23 21 17 15 18 19 18 17 15 14 13 12 10 8 7 7 6 5
7 7 8 9 10 12 13 13 14 16 17 21 25 28 28 27 26 26 23 20 21 24 24 21 20 20 21 19 14 14 16 15 14 12 11 11 11 9 7 6 5 6 5 4
6 6 8 9 10 11 11 10 11 13 14 15 18 22 25 24 22 21 19 16 16 16 16 15 13 13 14 13 13 13 12 11 11 11 10 10 9 7 5 5 5 5 5 4
9 10 10 10 10 10 10 10 12 14 16 14 14 18 21 21 18 16 14 12 10 10 10 9 7 5 5 6 8 8 7 8 9 9 9 9 7 5 3 4 4 4 4 4
10 12 12 10 8 7 8 10 12 15 16 15 15 17 18 17 15 13 11 7 6 6 6 4 2 1 2 4 6 6 5 6 6 6 6 6 5 3 2 2 1 1 2 2
7 9 9 8 6 5 7 9 11 12 12 11 12 13 13 13 13 12 10 8 5 4 4 2 1 1 3 5 6 5 4 4 4 2 2 2 3 3 2 1 0 0 1 1
5 6 6 5 5 5 6 7 7 7 7 7 8 9 8 9 10 11 11 8 6 5 4 3 2 3 3 4 4 3 2 1 1 0 0 0 2 3 3 2 1 0 0 1
4 6 5 4 4 4 5 5 5 4 5 7 8 6 5 6 8 10 10 8 7 7 5 4 3 3 3 2 2 1 0 0 0 0 0 1 2 3 3 2 1 0 1 1
Wind_Speed
15 14 14 14 16 17 15 12 9 8 9 9 8 9 9 10 10 10 10 10 10 9 9 9 9 8 8 7 7 7 7 7 6 5 5 4 4 4 3 3 3 2 2 2
15 16 15 15 16 16 15 13 12 9 6 5 7 9 9 10 10 9 9 9 9 9 9 9 9 8 8 7 7 7 7 7 6 6 5 5 5 4 4 3 3 3 3 3
13 15 15 16 14 14 13 12 11 10 7 7 7 9 8 8 9 9 8 8 8 8 8 8 8 8 7 7 7 7 7 7 7 6 6 5 6 5 4 4 3 3 3 4
11 13 17 12 11 12 12 12 12 8 7 7 7 9 8 8 7 8 8 8 8 8 8 8 8 8 7 7 7 7 7 7 7 7 6 5 5 5 4 4 3 3 3 3
10 13 14 12 11 11 11 9 9 8 7 7 8 10 8 7 7 7 8 7 7 7 7 8 8 8 7 7 8 7 7 7 7 7 7 6 5 5 4 4 4 3 3 3
10 13 13 11 10 7 8 8 7 6 6 5 7 6 6 7 7 7 7 7 7 7 7 7 8 9 8 7 7 7 7 6 6 6 6 6 6 5 4 4 3 3 4 3
13 12 9 8 8 8 10 4 2 4 3 4 3 3 6 7 6 6 7 7 6 6 6 7 8 8 8 7 7 6 6 6 6 6 6 6 6 5 5 4 4 3 3 3
12 12 8 3 6 5 2 4 3 3 5 5 6 7 7 7 6 6 6 6 7 5 5 6 7 7 7 6 6 6 6 7 6 6 6 6 6 5 5 4 4 4 3 3
5 3 2 5 6 6 6 6 4 5 6 6 5 6 7 6 6 6 6 5 5 6 6 6 6 6 6 5 6 6 7 6 6 6 5 6 6 6 5 5 4 4 4 4
4 4 3 6 6 5 5 5 4 4 5 5 4 5 6 6 5 5 5 5 5 6 7 6 6 5 5 5 6 6 7 6 6 6 6 6 5 5 5 4 4 4 4 4
4 4 4 4 4 4 4 4 4 4 4 4 5 4 5 5 5 5 4 4 5 5 5 6 6 6 6 6 6 7 7 6 6 6 6 5 4 2 3 2 2 3 2 2
4 5 4 4 3 3 3 2 3 4 4 4 4 4 4 4 4 4 4 4 4 5 5 5 6 6 6 6 6 6 6 6 5 6 6 6 6 4 5 3 5 6 4 3
2 2 4 6 4 3 2 2 3 3 3 3 3 3 3 4 4 4 4 4 4 5 5 5 5 5 5 5 6 6 6 6 5 5 6 6 6 6 5 3 3 4 4 4
3 2 4 4 4 2 2 2 2 2 2 2 2 2 3 3 4 3 3 3 4 4 4 4 5 5 5 5 5 6 6 6 5 5 5 5 5 6 6 6 5 3 2 4
1 1 1 3 2 2 0 1 2 2 1 2 2 2 3 3 3 3 3 3 3 3 3 3 4 4 4 5 5 6 5 5 5 4 5 5 5 5 5 6 5 5 4 4
2 3 2 2 2 2 2 2 1 1 1 1 2 2 3 3 3 3 3 3 3 3 2 2 2 3 4 4 5 4 4 4 4 4 4 4 4 4 4 5 5 5 5 5
4 3 3 3 2 2 2 1 1 1 0 1 1 2 2 3 3 3 3 2 3 3 2 2 2 3 3 4 4 4 4 4 5 4 4 4 4 4 4 4 4 4 4 6
2 2 2 3 2 2 2 1 2 1 1 0 1 1 1 2 2 2 2 2 2 2 2 2 3 3 3 4 3 3 3 4 4 3 3 3 3 3 3 3 4 4 4 6
3 3 3 3 3 2 2 2 2 2 1 1 1 2 2 2 2 2 2 2 2 3 2 3 4 4 4 3 3 3 4 4 4 3 2 2 3 3 3 3 3 4 4 4
2 2 3 3 3 3 2 2 2 2 2 2 2 2 2 2 2 2 2 3 2 1 2 3 4 4 4 3 4 4 4 4 4 3 2 2 2 2 3 3 3 3 3 4
2 3 3 3 3 3 2 3 3 3 2 2 2 2 3 3 3 3 3 3 2 2 2 3 4 3 2 2 4 4 3 3 3 3 3 3 2 2 3 3 3 3 3 3
2 2 2 3 3 2 2 3 3 3 3 3 3 3 3 3 3 3 3 2 2 3 2 2 2 2 2 2 3 3 3 3 2 2 2 2 3 2 3 3 3 3 3 3
3 2 2 2 2 2 3 2 3 3 3 3 3 3 3 2 2 3 3 2 2 2 2 2 2 4 2 3 3 3 3 3 2 2 3 3 3 3 3 3 2 3 3 3
3 2 2 2 2 2 2 2 2 2 2 3 3 3 3 2 2 2 1 2 3 3 1 1 4 4 3 3 3 3 2 2 2 2 3 3 3 3 3 3 3 3 3 3
3 3 2 2 3 2 2 2 2 2 2 1 1 1 1 2 1 1 0 1 2 3 2 3 4 4 3 2 2 2 1 1 1 1 2 2 3 3 3 3 3 2 2 3
2 2 1 2 1 1 2 2 2 2 1 1 1 1 1 0 1 1 1 1 2 2 2 2 3 3 2 2 2 2 1 2 2 2 2 1 2 2 2 2 3 2 2 2
2 1 1 2 1 2 2 2 1 1 1 1 1 1 1 1 1 1 1 1 1 1 1 2 2 2 2 2 2 1 1 1 1 1 0 0 0 1 1 2 2 2 2 2
Wind_Direction
249 237 224 218 226 227 231 241 233 197 194 181 165 150 140 134 136 138 139 141 143 149 146 149 148 151 153 157 155 153 154 155 154 150 148 148 141 137 135 136 124 104 102 95
247 246 239 226 224 226 228 232 232 220 204 158 147 139 139 139 144 145 147 148 145 147 148 154 155 156 156 157 153 151 155 153 150 152 154 151 145 139 134 126 112 110 105 91
241 241 243 235 227 223 225 231 231 223 194 166 160 149 147 148 151 151 146 146 150 154 155 158 158 156 157 152 150 154 155 154 155 159 159 159 156 146 144 140 130 117 102 96
241 239 240 238 237 237 233 226 228 226 181 175 163 143 132 135 143 149 150 149 152 155 159 159 156 154 155 157 155 158 162 161 161 164 164 161 157 152 151 146 138 130 117 111
238 233 234 237 232 231 231 231 221 219 199 179 159 145 134 142 147 145 146 147 150 155 159 157 159 157 158 162 162 165 167 168 169 168 164 163 164 158 153 147 142 140 132 127
238 237 229 231 231 233 239 228 214 204 194 183 172 171 144 140 143 143 139 142 145 152 155 156 160 159 164 169 169 172 171 169 166 164 164 167 163 156 151 148 152 150 141 137
234 239 240 240 226 212 226 221 176 161 164 178 151 100 113 128 126 125 131 134 140 147 153 152 154 157 169 172 175 170 163 161 160 161 164 160 150 151 154 158 155 150 146 147
232 236 230 251 216 201 117 73 75 101 100 88 96 104 115 115 114 125 129 137 144 143 140 141 148 158 170 171 163 156 156 158 160 160 167 155 153 157 160 162 162 161 162 162
220 224 74 57 64 79 89 85 76 76 93 105 104 109 116 117 120 127 134 138 143 141 138 140 149 158 167 160 154 154 154 157 159 160 156 153 162 165 169 175 179 175 179 184
185 160 124 88 79 68 80 89 88 93 98 100 100 104 114 122 126 130 136 143 141 141 144 145 149 152 151 145 147 152 156 157 160 161 163 163 171 174 178 179 185 183 184 187
179 139 125 101 86 79 70 81 95 99 102 110 100 102 113 115 121 126 135 142 139 142 148 151 153 157 155 151 154 159 160 165 173 171 164 163 162 152 167 139 163 176 177 176
182 164 152 130 110 91 89 84 90 96 96 95 104 100 100 109 119 127 132 134 140 148 157 161 163 161 159 160 163 165 169 174 180 178 170 172 167 146 67 97 118 108 107 118
68 136 141 132 130 124 118 90 83 92 97 96 97 101 101 109 123 130 134 139 149 158 157 165 168 165 167 168 169 176 179 179 187 184 176 181 180 174 164 124 89 90 107 121
17 49 116 119 121 123 133 140 115 95 102 112 114 119 123 120 124 130 138 147 156 157 156 163 165 167 168 164 170 183 192 188 195 192 183 185 190 187 182 178 176 176 164 161
279 249 136 123 133 140 140 169 163 153 140 124 124 125 123 119 119 122 131 139 142 147 148 159 168 170 171 172 179 192 198 195 199 202 188 186 191 191 191 189 182 171 154 152
231 210 205 187 177 193 216 225 214 178 139 88 87 101 104 113 117 117 125 135 148 150 148 157 163 163 167 175 183 195 201 193 194 206 201 189 191 195 195 187 184 180 176 169
224 205 202 211 208 225 243 257 264 256 197 114 87 97 111 123 127 132 140 152 150 147 156 164 175 171 176 188 198 206 200 192 195 209 209 196 193 197 198 196 191 186 176 163
256 260 244 232 238 247 266 271 268 258 240 291 150 142 152 157 159 154 160 165 155 163 175 182 173 177 186 194 206 222 212 194 199 215 215 203 196 194 198 196 186 180 169 159
242 252 257 252 258 265 269 279 274 270 231 245 226 192 193 190 179 179 173 195 210 205 189 170 163 185 202 199 215 224 216 205 202 211 213 185 195 194 189 198 192 184 176 160
261 262 263 262 250 252 261 277 283 270 256 246 231 208 201 201 195 199 200 224 232 221 169 162 176 198 204 197 222 234 226 211 202 193 191 197 205 199 200 198 189 186 176 165
246 259 261 262 258 254 265 273 273 265 256 250 242 225 214 210 209 205 210 217 179 150 161 172 194 201 206 196 225 236 226 214 201 191 186 190 199 203 216 208 184 180 183 178
294 273 264 265 267 269 269 267 264 259 249 239 231 223 215 214 216 213 212 220 189 148 185 226 214 158 157 193 222 237 225 208 195 186 185 185 184 195 220 217 193 185 187 183
317 304 279 258 261 274 275 275 269 262 254 243 227 217 218 219 229 223 222 200 178 154 208 246 131 130 158 231 237 234 227 214 196 189 190 189 189 191 203 207 200 189 185 185
295 291 281 270 250 243 257 274 280 267 251 244 232 216 207 210 228 253 254 133 142 159 217 133 144 159 199 234 239 234 218 208 206 209 204 188 185 190 197 199 203 193 178 181
268 260 256 246 241 233 228 236 234 232 230 219 247 243 226 210 202 209 170 144 148 172 187 169 181 191 206 222 230 240 225 212 222 213 208 204 200 194 190 182 173 164 157 161
257 257 239 247 267 252 231 223 215 205 211 206 188 171 250 238 143 136 137 177 191 198 195 170 173 185 201 216 217 205 193 177 185 211 234 221 189 172 155 145 146 157 163 157
232 238 252 254 251 266 255 223 212 204 203 202 176 157 164 130 121 119 151 174 179 197 204 189 185 187 198 214 213 205 215 206 163 151 153 87 86 111 133 146 148 144 149 159